EJU606B LFRS-LFBO

Flight info

Callsign EJU606B
Flight time 0h 53m
Altitude 29000
Route LUGEN UM184 TUPAR DCT CNA DCT UVELI DCT SECHE
Aircraft A320/M-SDE3FGHIRWY/LB1

Departure

Time 2026-05-04 17:35
Airport Nantes Atlantique Airport (LFRS)

Arrival

Time 2026-05-04 18:28
Airport Toulouse-Blagnac Airport (LFBO)
Time Latitude Longitude Altitude Speed Heading
2026-05-04 16:56 47.15690 -1.60210 99 ft 0 kts 36°
2026-05-04 17:25 47.15649 -1.60249 98 ft 4 kts 26°
2026-05-04 17:26 47.15605 -1.60256 97 ft 1 kts 297°
2026-05-04 17:26 47.15603 -1.60250 97 ft 0 kts 297°
2026-05-04 17:29 47.15687 -1.60381 99 ft 12 kts 319°
2026-05-04 17:29 47.15597 -1.60591 100 ft 16 kts 208°
2026-05-04 17:30 47.15181 -1.60908 99 ft 25 kts 207°
2026-05-04 17:31 47.14854 -1.61159 96 ft 28 kts 207°
2026-05-04 17:31 47.14376 -1.61522 88 ft 20 kts 207°
2026-05-04 17:32 47.14177 -1.61678 82 ft 9 kts 224°
2026-05-04 17:33 47.14178 -1.61938 83 ft 6 kts 360°
2026-05-04 17:33 47.14213 -1.61914 85 ft 5 kts 29°
2026-05-04 17:34 47.15050 -1.61277 95 ft 129 kts 28°
2026-05-04 17:34 47.15998 -1.60555 140 ft 173 kts 25°
2026-05-04 17:35 47.16490 -1.56048 1932 ft 210 kts 144°
2026-05-04 17:35 47.13681 -1.53835 3000 ft 247 kts 157°
2026-05-04 17:35 47.12048 -1.52739 3671 ft 265 kts 156°
2026-05-04 17:36 47.10410 -1.51609 4609 ft 269 kts 155°
2026-05-04 17:36 47.08721 -1.50400 5581 ft 272 kts 155°
2026-05-04 17:36 47.07031 -1.49111 6532 ft 276 kts 148°
2026-05-04 17:36 47.05540 -1.47314 7441 ft 280 kts 140°
2026-05-04 17:37 47.04082 -1.45405 8398 ft 282 kts 140°
2026-05-04 17:37 47.02615 -1.43478 9347 ft 285 kts 140°
2026-05-04 17:37 47.01131 -1.41530 10200 ft 290 kts 140°
2026-05-04 17:37 46.99565 -1.39482 10532 ft 314 kts 140°
2026-05-04 17:38 46.97896 -1.37307 11068 ft 326 kts 140°
2026-05-04 17:38 46.96187 -1.35081 11835 ft 331 kts 140°
2026-05-04 17:38 46.94457 -1.32826 12661 ft 335 kts 140°
2026-05-04 17:38 46.92710 -1.30551 13451 ft 338 kts 140°
2026-05-04 17:39 46.89166 -1.25939 14861 ft 344 kts 141°
2026-05-04 17:39 46.87369 -1.23609 15539 ft 347 kts 141°
2026-05-04 17:39 46.85555 -1.21259 16233 ft 350 kts 141°
2026-05-04 17:40 46.83728 -1.18895 16919 ft 353 kts 141°
2026-05-04 17:40 46.81883 -1.16507 17615 ft 356 kts 141°
2026-05-04 17:40 46.80025 -1.14100 18281 ft 359 kts 141°
2026-05-04 17:40 46.78149 -1.11671 18887 ft 362 kts 142°
2026-05-04 17:41 46.76258 -1.09225 19499 ft 364 kts 142°
2026-05-04 17:41 46.74359 -1.06770 20118 ft 366 kts 142°
2026-05-04 17:41 46.72448 -1.04299 20716 ft 368 kts 142°
2026-05-04 17:41 46.70526 -1.01816 21284 ft 370 kts 142°
2026-05-04 17:42 46.68596 -0.99323 21852 ft 372 kts 142°
2026-05-04 17:42 46.66653 -0.96813 22423 ft 374 kts 142°
2026-05-04 17:42 46.64698 -0.94293 22982 ft 376 kts 143°
2026-05-04 17:42 46.62732 -0.91763 23525 ft 378 kts 143°
2026-05-04 17:43 46.60755 -0.89224 23968 ft 380 kts 143°
2026-05-04 17:43 46.58771 -0.86681 24417 ft 381 kts 143°
2026-05-04 17:43 46.56778 -0.84124 24873 ft 383 kts 143°
2026-05-04 17:43 46.54780 -0.81552 25323 ft 384 kts 143°
2026-05-04 17:44 46.52779 -0.78972 25779 ft 385 kts 143°
2026-05-04 17:44 46.50770 -0.76387 26210 ft 387 kts 143°
2026-05-04 17:44 46.48750 -0.73789 26640 ft 389 kts 143°
2026-05-04 17:44 46.46723 -0.71180 27070 ft 390 kts 143°
2026-05-04 17:45 46.44681 -0.68596 27492 ft 390 kts 146°
2026-05-04 17:45 46.42431 -0.66433 27902 ft 386 kts 156°
2026-05-04 17:45 46.39978 -0.64899 28309 ft 384 kts 165°
2026-05-04 17:45 46.37424 -0.63738 28713 ft 385 kts 165°
2026-05-04 17:46 46.34865 -0.62568 28931 ft 385 kts 165°
2026-05-04 17:46 46.32363 -0.61414 28958 ft 369 kts 165°
2026-05-04 17:46 46.27576 -0.59200 28960 ft 358 kts 165°
2026-05-04 17:47 46.22842 -0.57016 28957 ft 357 kts 165°
2026-05-04 17:47 46.18112 -0.54844 28958 ft 357 kts 165°
2026-05-04 17:48 46.13380 -0.52679 28954 ft 357 kts 165°
2026-05-04 17:48 46.08648 -0.50520 28955 ft 357 kts 165°
2026-05-04 17:49 46.03913 -0.48362 28949 ft 357 kts 165°
2026-05-04 17:49 45.99186 -0.46201 28940 ft 357 kts 165°
2026-05-04 17:50 45.94450 -0.44046 28933 ft 357 kts 165°
2026-05-04 17:50 45.89714 -0.41904 28938 ft 357 kts 165°
2026-05-04 17:51 45.84973 -0.39755 28936 ft 357 kts 165°
2026-05-04 17:51 45.80230 -0.37610 28930 ft 357 kts 165°
2026-05-04 17:52 45.75483 -0.35462 28927 ft 358 kts 165°
2026-05-04 17:52 45.70736 -0.33316 28934 ft 358 kts 165°
2026-05-04 17:53 45.65999 -0.31139 28928 ft 359 kts 161°
2026-05-04 17:53 45.61472 -0.28066 28935 ft 360 kts 157°
2026-05-04 17:54 45.56961 -0.24939 28934 ft 360 kts 157°
2026-05-04 17:54 45.52447 -0.21821 28937 ft 360 kts 158°
2026-05-04 17:55 45.47932 -0.18716 28929 ft 360 kts 158°
2026-05-04 17:55 45.43415 -0.15607 28933 ft 361 kts 158°
2026-05-04 17:56 45.38899 -0.12506 28937 ft 361 kts 158°
2026-05-04 17:56 45.35139 -0.09924 28932 ft 361 kts 158°
2026-05-04 17:57 45.30623 -0.06826 28932 ft 361 kts 157°
2026-05-04 17:57 45.26099 -0.03730 28937 ft 361 kts 157°
2026-05-04 17:58 45.21575 -0.00645 28939 ft 361 kts 157°
2026-05-04 17:58 45.17046 0.02436 28940 ft 361 kts 157°
2026-05-04 17:59 45.12520 0.05519 28930 ft 361 kts 157°
2026-05-04 18:00 45.05719 0.10129 28935 ft 361 kts 158°
2026-05-04 18:00 45.01182 0.13198 28932 ft 361 kts 158°
2026-05-04 18:01 44.96639 0.16256 28934 ft 362 kts 158°
2026-05-04 18:01 44.92104 0.19319 28918 ft 362 kts 157°
2026-05-04 18:02 44.85289 0.23901 28910 ft 362 kts 158°
2026-05-04 18:02 44.80746 0.26954 28916 ft 362 kts 158°
2026-05-04 18:03 44.76198 0.30006 28912 ft 362 kts 158°
2026-05-04 18:03 44.71644 0.33057 28916 ft 363 kts 158°
2026-05-04 18:04 44.69375 0.34577 28691 ft 359 kts 158°
2026-05-04 18:04 44.67138 0.36072 28279 ft 353 kts 158°
2026-05-04 18:04 44.62778 0.38984 27484 ft 341 kts 158°
2026-05-04 18:05 44.60650 0.40401 27105 ft 336 kts 158°
2026-05-04 18:05 44.58550 0.41797 26724 ft 331 kts 158°
2026-05-04 18:05 44.56483 0.43170 26360 ft 327 kts 158°
2026-05-04 18:05 44.54444 0.44523 26005 ft 322 kts 158°
2026-05-04 18:06 44.50430 0.47185 25247 ft 316 kts 158°
2026-05-04 18:06 44.48453 0.48493 24878 ft 313 kts 158°
2026-05-04 18:06 44.46521 0.49772 24500 ft 310 kts 158°
2026-05-04 18:07 44.44551 0.51078 24109 ft 309 kts 158°
2026-05-04 18:07 44.42634 0.52342 23769 ft 311 kts 158°
2026-05-04 18:07 44.40585 0.53681 23438 ft 327 kts 158°
2026-05-04 18:07 44.38540 0.55017 23089 ft 329 kts 158°
2026-05-04 18:08 44.36435 0.56391 22748 ft 329 kts 158°
2026-05-04 18:08 44.34366 0.57741 22421 ft 328 kts 158°
2026-05-04 18:08 44.32302 0.59089 22092 ft 327 kts 158°
2026-05-04 18:08 44.30248 0.60435 21767 ft 325 kts 158°
2026-05-04 18:09 44.26161 0.63104 21116 ft 323 kts 158°
2026-05-04 18:09 44.22107 0.65755 20472 ft 321 kts 158°
2026-05-04 18:10 44.20092 0.67070 20155 ft 320 kts 158°
2026-05-04 18:10 44.18079 0.68377 19831 ft 319 kts 158°
2026-05-04 18:10 44.16070 0.69674 19507 ft 318 kts 158°
2026-05-04 18:10 44.14068 0.70966 19197 ft 317 kts 158°
2026-05-04 18:11 44.12073 0.72257 18874 ft 316 kts 158°
2026-05-04 18:11 44.10089 0.73545 18558 ft 315 kts 158°
2026-05-04 18:11 44.08106 0.74833 18237 ft 314 kts 158°
2026-05-04 18:11 44.06132 0.76116 17882 ft 313 kts 158°
2026-05-04 18:12 44.04161 0.77397 17575 ft 312 kts 158°
2026-05-04 18:12 44.02197 0.78668 17266 ft 311 kts 158°
2026-05-04 18:12 44.00236 0.79930 16955 ft 310 kts 158°
2026-05-04 18:12 43.98279 0.81189 16640 ft 309 kts 158°
2026-05-04 18:13 43.96331 0.82443 16318 ft 308 kts 158°
2026-05-04 18:13 43.94389 0.83709 16023 ft 308 kts 155°
2026-05-04 18:13 43.90828 0.87070 15511 ft 309 kts 148°
2026-05-04 18:14 43.89068 0.88779 15262 ft 309 kts 148°
2026-05-04 18:14 43.87310 0.90484 15017 ft 308 kts 148°
2026-05-04 18:14 43.85554 0.92185 14772 ft 308 kts 148°
2026-05-04 18:15 43.82046 0.95585 14278 ft 307 kts 148°
2026-05-04 18:15 43.78557 0.98969 13957 ft 306 kts 148°
2026-05-04 18:15 43.76812 1.00659 13964 ft 306 kts 148°
2026-05-04 18:16 43.75065 1.02349 13968 ft 307 kts 148°
2026-05-04 18:16 43.73310 1.04045 13965 ft 307 kts 148°
2026-05-04 18:16 43.71561 1.05734 13967 ft 307 kts 148°
2026-05-04 18:17 43.68055 1.09120 13975 ft 307 kts 148°
2026-05-04 18:17 43.66303 1.10810 13971 ft 307 kts 148°
2026-05-04 18:17 43.62795 1.14188 13980 ft 307 kts 148°
2026-05-04 18:18 43.61042 1.15878 13972 ft 307 kts 147°
2026-05-04 18:18 43.59288 1.17566 13964 ft 307 kts 148°
2026-05-04 18:18 43.57530 1.19249 13642 ft 310 kts 148°
2026-05-04 18:18 43.55739 1.20960 12670 ft 316 kts 147°
2026-05-04 18:19 43.52271 1.24284 11690 ft 296 kts 148°
2026-05-04 18:19 43.50589 1.25897 11033 ft 293 kts 147°
2026-05-04 18:19 43.49014 1.27676 10371 ft 294 kts 135°
2026-05-04 18:20 43.47783 1.29928 9643 ft 296 kts 124°
2026-05-04 18:20 43.46665 1.32306 8978 ft 293 kts 125°
2026-05-04 18:20 43.45577 1.34612 8529 ft 282 kts 124°
2026-05-04 18:20 43.44536 1.36813 8109 ft 273 kts 124°
2026-05-04 18:21 43.43516 1.38966 7709 ft 264 kts 124°
2026-05-04 18:21 43.42510 1.41084 7289 ft 258 kts 124°
2026-05-04 18:21 43.41545 1.43124 6875 ft 251 kts 122°
2026-05-04 18:21 43.40992 1.45329 6500 ft 247 kts 93°
2026-05-04 18:22 43.41281 1.47647 6083 ft 248 kts 62°
2026-05-04 18:22 43.42359 1.49475 5630 ft 248 kts 32°
2026-05-04 18:22 43.43842 1.50628 5214 ft 250 kts 24°
2026-05-04 18:22 43.45376 1.51719 4808 ft 246 kts 19°
2026-05-04 18:23 43.46999 1.52029 4324 ft 230 kts 346°
2026-05-04 18:23 43.48423 1.51185 3895 ft 217 kts 323°
2026-05-04 18:23 43.49599 1.49988 3579 ft 210 kts 321°
2026-05-04 18:23 43.50737 1.48794 3284 ft 201 kts 321°
2026-05-04 18:24 43.51821 1.47668 3008 ft 188 kts 321°
2026-05-04 18:24 43.52847 1.46605 2787 ft 182 kts 320°
2026-05-04 18:24 43.53808 1.45612 2573 ft 163 kts 320°
2026-05-04 18:24 43.54676 1.44712 2363 ft 151 kts 319°
2026-05-04 18:25 43.55477 1.43882 2170 ft 142 kts 319°
2026-05-04 18:25 43.56241 1.43089 1951 ft 135 kts 319°
2026-05-04 18:25 43.56980 1.42322 1782 ft 131 kts 320°
2026-05-04 18:25 43.57706 1.41568 1603 ft 131 kts 320°
2026-05-04 18:26 43.58434 1.40811 1434 ft 131 kts 318°
2026-05-04 18:26 43.59163 1.40054 1235 ft 131 kts 320°
2026-05-04 18:26 43.59898 1.39290 1042 ft 133 kts 319°
2026-05-04 18:26 43.60633 1.38526 847 ft 132 kts 321°
2026-05-04 18:27 43.61374 1.37768 672 ft 132 kts 321°
2026-05-04 18:27 43.62107 1.36991 527 ft 132 kts 319°
2026-05-04 18:27 43.62780 1.36289 488 ft 103 kts 318°
2026-05-04 18:27 43.63214 1.35821 490 ft 62 kts 321°
2026-05-04 18:28 43.63480 1.35550 492 ft 29 kts 325°
2026-05-04 18:28 43.63583 1.35512 487 ft 12 kts 28°
2026-05-04 18:28 43.63627 1.35588 486 ft 9 kts 54°
2026-05-04 18:28 43.63647 1.35624 491 ft 1 kts 52°
2026-05-04 18:29 43.63651 1.35631 492 ft 1 kts 52°
2026-05-04 18:29 43.63659 1.35647 492 ft 5 kts 53°
2026-05-04 18:29 43.63697 1.35715 489 ft 13 kts 53°
2026-05-04 18:29 43.63760 1.35830 490 ft 15 kts 53°
2026-05-04 18:30 43.63806 1.36003 488 ft 8 kts 142°
2026-05-04 18:30 43.63766 1.36044 487 ft 7 kts 142°
2026-05-04 18:30 43.63732 1.36080 491 ft 6 kts 143°
2026-05-04 18:31 43.63702 1.36112 488 ft 5 kts 143°
2026-05-04 18:31 43.63677 1.36138 489 ft 4 kts 143°
2026-05-04 18:31 43.63644 1.36172 490 ft 8 kts 143°
2026-05-04 18:31 43.63585 1.36233 488 ft 13 kts 143°
2026-05-04 18:32 43.63498 1.36324 489 ft 18 kts 143°
2026-05-04 18:32 43.63381 1.36444 488 ft 23 kts 143°
2026-05-04 18:32 43.63287 1.36541 492 ft 13 kts 143°
2026-05-04 18:32 43.63198 1.36634 489 ft 19 kts 143°
2026-05-04 18:33 43.63083 1.36753 494 ft 23 kts 143°
2026-05-04 18:33 43.62963 1.36877 485 ft 21 kts 142°
2026-05-04 18:33 43.62852 1.36993 489 ft 14 kts 143°
2026-05-04 18:33 43.62830 1.37056 489 ft 7 kts 75°
2026-05-04 18:34 43.62855 1.37107 487 ft 7 kts 54°
2026-05-04 18:34 43.62890 1.37172 490 ft 10 kts 53°
2026-05-04 18:34 43.62897 1.37258 490 ft 11 kts 134°
2026-05-04 18:34 43.62824 1.37332 489 ft 15 kts 143°
2026-05-04 18:35 43.62802 1.37395 491 ft 8 kts 72°
2026-05-04 18:35 43.62823 1.37483 485 ft 7 kts 71°
2026-05-04 18:35 43.62848 1.37559 488 ft 10 kts 52°
2026-05-04 18:35 43.62865 1.37589 489 ft 3 kts 53°
2026-05-04 18:36 43.62870 1.37597 489 ft 0 kts 53°